Effective Sunday, March 17, 2024, the National Weather Service National Data Buoy Center will discontinue its Dial-A-Buoy Interactive Voice Response system. For more information, see Service Change Notice 24-06 (PDF).

Station MTKN6 - 8510560 - Montauk, NY Image indicating link to RSS feed of recent meteorological observations for station MTKN6


Conditions at MTKN6 as of
(9:48 am EST)
1448 GMT on 03/03/2024:
     

Click on the graph icon in the table below to see a time series plot of the last five days of that observation.

5-day plot - Atmospheric Pressure Atmospheric Pressure (PRES):30.07 in
5-day plot - Air Temperature Air Temperature (ATMP): 43.0 °F
5-day plot - Water Temperature Water Temperature (WTMP): 41.2 °F
NOS Water Level Observation Network Water Level
Previous observations
TIME
(EST)
5-day plot - Wind Direction
WDIR
 
5-day plot - Wind Speed
WSPD
kts
5-day plot - Wind Gust
GST
kts
5-day plot - Wave Height
WVHT
ft
5-day plot - Dominant Wave Period
DPD
sec
5-day plot - Average Wave Period
APD
sec
5-day plot - Mean Wave Direction
MWD
 
5-day plot - Atmospheric Pressure
PRES
in
5-day plot - Pressure Tendency
PTDY
in
5-day plot - Air Temperature
ATMP
°F
5-day plot - Water Temperature
WTMP
°F
5-day plot - Dew Point
DEWP
°F
5-day plot - Salinity
SAL
psu
5-day plot - Visibility
VIS
nmi
5-day plot - Tide (above MLLW)
TIDE
ft
2024-03-03 09:42 am-------30.07- 42.8 41.2----
2024-03-03 09:36 am-------30.07- 42.8 41.2----
2024-03-03 09:30 am-------30.07-------
2024-03-03 09:24 am-------30.07-------
2024-03-03 09:18 am-------30.07-- 41.2----
2024-03-03 09:12 am-------30.07-- 41.2----
2024-03-03 09:06 am-------30.06-- 41.2----
2024-03-03 09:00 am--------- 42.8 41.2----
2024-03-03 08:54 am--------- 42.6 41.2----
2024-03-03 08:48 am-------30.06-- 41.2----
2024-03-03 08:42 am-------30.06-- 41.2----
2024-03-03 08:36 am-------30.06-- 41.2----
2024-03-03 08:30 am-------30.05-- 41.2----
2024-03-03 08:24 am-------30.05-- 41.2----
2024-03-03 08:18 am-------30.05- 43.2 41.2----
2024-03-03 08:12 am-------30.05- 43.3 41.2----
2024-03-03 08:06 am-------30.04- 43.2 41.2----
2024-03-03 08:00 am-------30.04+0.07 43.3-----
2024-03-03 07:54 am-------30.04- 43.3-----
2024-03-03 07:48 am-------30.03-- 41.2----
2024-03-03 07:42 am-------30.03-- 41.2----
2024-03-03 07:36 am-------30.03-- 41.2----
2024-03-03 07:30 am---------- 41.2----
2024-03-03 07:24 am---------- 41.2----
2024-03-03 07:18 am-------30.02- 43.2 41.2----
2024-03-03 07:12 am-------30.01- 43.2 41.2----
2024-03-03 07:06 am-------30.01- 42.8 41.2----
2024-03-03 07:00 am-------30.01+0.04 42.6 41.2----
2024-03-03 06:54 am-------30.00- 43.0 41.2----
2024-03-03 06:48 am-------30.00- 43.3 41.2----
2024-03-03 06:42 am-------30.00- 44.1 41.2----
2024-03-03 06:36 am-------29.99- 43.9 41.2----
2024-03-03 06:30 am-------29.99- 43.9 41.2----
2024-03-03 06:24 am-------29.99- 43.9 41.2----
2024-03-03 06:18 am-------29.99- 44.4 41.2----
2024-03-03 06:12 am-------29.99- 44.6 41.2----
2024-03-03 06:06 am-------29.98- 44.1 41.2----
2024-03-03 06:00 am-------29.98+0.04- 41.2----
2024-03-03 05:54 am-------29.98-- 41.2----
2024-03-03 05:48 am-------29.98- 44.4 41.0----
2024-03-03 05:42 am-------29.98- 44.4 41.0----
2024-03-03 05:36 am-------29.98- 45.0 41.0----
2024-03-03 05:30 am-------29.98- 45.5 41.0----
2024-03-03 05:24 am-------29.98- 45.5 41.0----
2024-03-03 05:18 am-------29.98- 45.7 41.0----
2024-03-03 05:12 am-------29.97- 45.9 41.0----
2024-03-03 05:06 am-------29.97- 45.9 41.0----
2024-03-03 05:00 am-------29.97+0.02 45.9 41.0----
2024-03-03 04:54 am-------29.96- 46.8 41.0----
2024-03-03 04:48 am-------29.96- 46.8 41.0----
2024-03-03 04:42 am-------29.96- 46.6 41.0----
2024-03-03 04:36 am-------29.96- 46.6 41.0----
2024-03-03 04:30 am-------29.96- 46.9 41.0----
2024-03-03 04:24 am-------29.96- 47.1 41.0----
2024-03-03 04:18 am-------29.96- 47.3 41.0----
2024-03-03 04:12 am-------29.96- 47.3 41.0----
2024-03-03 04:06 am-------29.96- 47.3 41.0----
2024-03-03 04:00 am-------29.96+0.00 47.1 41.0----
2024-03-03 03:54 am-------29.96- 46.8 41.0----
2024-03-03 03:48 am-------29.95- 46.9 41.0----
2024-03-03 03:42 am-------29.95- 46.4 41.0----
2024-03-03 03:36 am-------29.95- 46.8 41.0----
2024-03-03 03:30 am-------29.96- 46.2 41.0----
2024-03-03 03:24 am-------29.95- 45.3 41.0----
2024-03-03 03:18 am-------29.95- 45.3 41.0----
2024-03-03 03:12 am-------29.95- 45.3 40.8----
2024-03-03 03:06 am-------29.95- 45.1 40.8----
2024-03-03 03:00 am-------29.95-0.03 45.5 40.8----
2024-03-03 02:54 am-------29.95- 45.9 40.8----
2024-03-03 02:48 am-------29.95- 45.5 40.8----
2024-03-03 02:42 am-------29.95- 45.3 40.8----
2024-03-03 02:36 am-------29.95- 45.3 40.8----
2024-03-03 02:30 am-------29.95- 45.9 40.8----
2024-03-03 02:24 am-------29.95- 47.8 41.0----
2024-03-03 02:18 am-------29.95- 47.7 41.0----
2024-03-03 02:12 am-------29.95- 47.8 41.0----
2024-03-03 02:06 am-------29.95- 47.7 41.0----
2024-03-03 02:00 am-------29.95-0.06 48.0 41.0----
2024-03-03 01:54 am-------29.95- 48.0 41.0----
2024-03-03 01:48 am-------29.96- 48.0 41.0----
2024-03-03 01:42 am-------29.95- 48.0 41.0----
2024-03-03 01:36 am-------29.96- 47.8 41.0----
2024-03-03 01:30 am-------29.96- 47.8 41.0----
2024-03-03 01:24 am-------29.96- 47.5 41.0----
2024-03-03 01:18 am-------29.96- 47.8 41.0----
2024-03-03 01:12 am-------29.96- 47.8 41.0----
2024-03-03 01:06 am-------29.96- 47.7 41.0----
2024-03-03 01:00 am-------29.96-0.07 47.7 41.0----
2024-03-03 12:54 am-------29.97- 48.0 41.0----
2024-03-03 12:48 am-------29.97- 48.2 41.0----
2024-03-03 12:42 am-------29.97- 48.4 40.8----
2024-03-03 12:36 am-------29.97- 48.9 40.8----
2024-03-03 12:30 am-------29.97- 48.7 40.8----
2024-03-03 12:24 am-------29.97- 48.4 40.8----
2024-03-03 12:18 am-------29.98- 48.4 40.8----
2024-03-03 12:12 am-------29.98- 48.7 40.8----
2024-03-03 12:06 am-------29.98- 48.9 40.8----
2024-03-03 12:00 am-------29.98-0.04 48.7 40.8----
2024-03-02 11:54 pm-------29.98- 48.4 40.8----
2024-03-02 11:48 pm-------29.98- 48.6 40.8----
2024-03-02 11:42 pm-------29.98- 48.4 40.8----
2024-03-02 11:36 pm-------29.99- 48.2 40.8----
2024-03-02 11:30 pm-------29.99- 48.2 40.8----
2024-03-02 11:24 pm-------29.99- 48.2 41.0----
2024-03-02 11:18 pm-------30.00- 48.0 41.0----
2024-03-02 11:12 pm-------30.00- 48.0 41.0----
2024-03-02 11:06 pm-------30.00- 47.8 41.0----
2024-03-02 11:00 pm-------30.01-0.02 47.8 40.8----
2024-03-02 10:54 pm-------30.01- 47.7 40.8----
2024-03-02 10:48 pm-------30.01- 48.0 40.8----
2024-03-02 10:42 pm-------30.02- 48.2 40.8----
2024-03-02 10:36 pm-------30.02- 48.0 40.8----
2024-03-02 10:30 pm-------30.02- 48.2 40.8----
2024-03-02 10:24 pm-------30.03- 48.4 40.8----
2024-03-02 10:18 pm-------30.03- 48.4 40.8----
2024-03-02 10:12 pm-------30.04- 48.2 40.8----
2024-03-02 10:06 pm-------30.04- 48.4 40.8----
2024-03-02 10:00 pm-------30.04-0.06 48.0 40.8----
2024-03-02 09:54 pm-------30.04- 47.1 40.8----
2024-03-02 09:48 pm-------30.03- 47.1 40.8----
2024-03-02 09:42 pm-------30.01- 47.3 40.8----
2024-03-02 09:36 pm-------30.00- 47.5 40.8----
2024-03-02 09:30 pm-------30.01- 47.5 40.8----
2024-03-02 09:24 pm-------30.01- 47.8 40.8----
2024-03-02 09:18 pm-------30.01- 47.3 40.8----
2024-03-02 09:12 pm-------30.01- 47.5 40.8----
2024-03-02 09:06 pm-------30.01- 47.8 40.8----
2024-03-02 09:00 pm-------30.02-0.13 47.5 40.8----
2024-03-02 08:54 pm-------30.02- 47.8 40.8----
2024-03-02 08:48 pm-------30.02- 47.7 40.8----
2024-03-02 08:42 pm-------30.02- 48.2 40.8----
2024-03-02 08:36 pm-------30.02- 47.7 40.8----
2024-03-02 08:30 pm-------30.03- 47.8 40.8----
2024-03-02 08:24 pm-------30.02- 48.2 40.8----
2024-03-02 08:18 pm-------30.02- 48.0 40.8----
2024-03-02 08:12 pm-------30.03- 47.8 41.0----
2024-03-02 08:06 pm-------30.03- 48.0 41.0----
2024-03-02 08:00 pm-------30.03-0.16 47.8 41.0----
2024-03-02 07:54 pm-------30.04- 47.8 41.0----
2024-03-02 07:48 pm-------30.05- 47.7 41.0----
2024-03-02 07:42 pm-------30.06- 47.5 41.0----
2024-03-02 07:36 pm-------30.06- 47.7 41.0----
2024-03-02 07:30 pm-------30.06- 47.5 41.0----
2024-03-02 07:24 pm-------30.07- 47.5 41.0----
2024-03-02 07:18 pm-------30.08- 47.1 41.0----
2024-03-02 07:12 pm-------30.09- 46.8 41.0----
2024-03-02 07:06 pm-------30.09- 46.9 41.0----
2024-03-02 07:00 pm-------30.09-0.12 47.1 41.0----
2024-03-02 06:54 pm-------30.10- 47.5 41.0----
2024-03-02 06:48 pm-------30.11-- 41.0----
2024-03-02 06:42 pm-------30.12-- 41.0----
2024-03-02 06:36 pm-------30.12-- 41.0----
2024-03-02 06:30 pm-------30.11- 47.7 41.0----
2024-03-02 06:24 pm-------30.12- 47.7 41.0----
2024-03-02 06:00 pm-------30.15- 47.3 41.0----
2024-03-02 05:54 pm-------30.16- 47.1 41.0----
2024-03-02 05:48 pm-------30.16- 47.1 41.0----
2024-03-02 05:42 pm-------30.16- 46.9 41.0----
2024-03-02 05:36 pm-------30.17- 46.9 41.0----
2024-03-02 05:30 pm-------30.17-- 41.0----
2024-03-02 05:24 pm-------30.17-- 41.0----
2024-03-02 05:18 pm-------30.18-- 41.0----
2024-03-02 05:12 pm-------30.18-- 41.0----
2024-03-02 05:06 pm-------30.18-- 41.0----
2024-03-02 05:00 pm-------30.19-0.07 46.8 41.0----
2024-03-02 04:54 pm-------30.19- 46.6 41.0----
2024-03-02 04:48 pm-------30.20- 46.6 41.0----
2024-03-02 04:42 pm-------30.20- 46.4 41.0----
2024-03-02 04:36 pm-------30.20- 46.4 41.0----
2024-03-02 04:30 pm-------30.20- 45.9-----
2024-03-02 04:24 pm-------30.20- 45.7-----
2024-03-02 04:18 pm-------30.20- 45.7 41.0----
2024-03-02 04:12 pm-------30.20- 45.7 41.0----
2024-03-02 04:06 pm-------30.21- 45.7 41.0----
2024-03-02 04:00 pm-------30.21-0.08 45.7 41.0----
2024-03-02 03:54 pm-------30.21- 45.9 41.0----
2024-03-02 03:48 pm-------30.21-- 41.0----
2024-03-02 03:42 pm-------30.21-- 41.0----
2024-03-02 03:36 pm-------30.22-- 41.0----
2024-03-02 03:30 pm-------30.22- 45.3 41.0----
2024-03-02 03:24 pm-------30.22- 45.3 41.0----
2024-03-02 03:18 pm-------30.22- 45.3 41.0----
2024-03-02 03:12 pm-------30.22- 45.7 41.0----
2024-03-02 03:06 pm-------30.22- 45.7 41.0----
2024-03-02 03:00 pm--------- 45.5-----
2024-03-02 02:54 pm--------- 46.0-----
2024-03-02 02:48 pm-------30.23- 46.0 41.0----
2024-03-02 02:42 pm-------30.24- 45.9 41.0----
2024-03-02 02:36 pm-------30.24- 45.9 41.0----
2024-03-02 02:30 pm-------30.24- 45.9 41.0----
2024-03-02 02:24 pm-------30.24- 46.0 41.0----
2024-03-02 02:18 pm-------30.24- 46.0 41.0----
2024-03-02 02:12 pm-------30.25- 46.0 41.0----
2024-03-02 02:06 pm-------30.25- 45.9 41.0----
2024-03-02 02:00 pm-------30.26-0.10 45.7 41.0----
2024-03-02 01:54 pm-------30.26- 45.7 41.0----
2024-03-02 01:48 pm-------30.27- 45.7 41.0----
2024-03-02 01:42 pm-------30.27- 45.7 41.0----
2024-03-02 01:36 pm-------30.27- 45.5 41.0----
2024-03-02 01:30 pm-------30.27- 45.7 41.0----
2024-03-02 01:24 pm-------30.28- 45.7 41.0----
2024-03-02 01:18 pm-------30.28- 45.7 41.0----
2024-03-02 01:12 pm-------30.28- 45.7 41.0----
2024-03-02 01:06 pm-------30.29- 45.7 41.0----
2024-03-02 01:00 pm-------30.29-0.10 45.7 41.0----
2024-03-02 12:54 pm-------30.29- 45.9 41.0----
2024-03-02 12:48 pm-------30.29- 45.9 41.0----
2024-03-02 12:42 pm-------30.30- 45.9 41.0----
2024-03-02 12:36 pm-------30.30- 45.7 41.0----
2024-03-02 12:30 pm-------30.31- 45.5 40.8----
2024-03-02 12:24 pm-------30.31- 45.5 40.8----
2024-03-02 12:18 pm-------30.32- 45.5 41.0----
2024-03-02 12:12 pm-------30.32- 45.5 41.0----
2024-03-02 12:06 pm-------30.32- 45.3 41.0----
2024-03-02 12:00 pm-------30.33-0.08 45.1 41.0----
2024-03-02 11:54 am-------30.33- 45.3 41.0----
2024-03-02 11:48 am-------30.34- 45.3 40.8----
2024-03-02 11:42 am-------30.34- 45.3 40.8----
2024-03-02 11:36 am-------30.35- 45.1 40.8----
2024-03-02 11:30 am-------30.35- 45.0 40.8----
2024-03-02 11:24 am-------30.35- 44.8 40.8----
2024-03-02 11:18 am-------30.35- 45.0 40.8----
2024-03-02 11:12 am-------30.36- 44.8 40.8----
2024-03-02 11:06 am-------30.36- 44.8 40.8----
2024-03-02 11:00 am-------30.36-0.07 44.8 40.8----
2024-03-02 10:54 am-------30.37- 44.6 40.8----
2024-03-02 10:48 am-------30.37- 44.4 40.8----
2024-03-02 10:42 am-------30.37- 44.4 40.8----
2024-03-02 10:36 am-------30.37- 44.4 40.8----
2024-03-02 10:30 am-------30.38-- 40.8----
2024-03-02 10:24 am-------30.38-- 40.8----
2024-03-02 10:18 am-------30.38- 44.6 40.8----
2024-03-02 10:12 am-------30.38- 44.4 40.8----
2024-03-02 10:06 am-------30.39- 44.4 40.8----
2024-03-02 10:00 am-------30.39-0.04 44.4 40.8----
2024-03-02 09:54 am-------30.39- 44.4 40.8----